Tracking 29892 objects as of 21-Nov-2024
HD Live streaming from Space Station
objects crossing your sky now

TITAN 3C TRANSTAGE DEB

Track TITAN 3C TRANSTAGE DEB now!


NORAD ID: 19592
Int'l Code: 1965-108AA
Perigee: 509.5 km
Apogee: 28,910.6 km
Inclination: 26.7 °
Period: 507.7 minutes
Semi major axis: 21081 km
RCS: 0.167 m2 (medium)
Launch date: December 21, 1965
Source: United States (US)
Launch site: AIR FORCE EASTERN TEST RANGE (AFETR)

Note: This is SATELLITE DEBRIS
Your satellite tracking list
Your tracking list is empty




NASA's NSSDC Master Catalog

Two Line Element Set (TLE):
1 19592U 65108AA  24325.79378772  .00001404  00000-0  67515-2 0  9997
2 19592  26.7417  92.8615 6736148 184.8594 180.6992  2.83637796329044
Source of the keplerian elements: AFSPC